| time (UTC) | temp C | wind direction | speed KPH | gust KPH | rain 1hr cm | rain 24hr cm | rain mn cm | humidity % | barometer mb |
| 20260502163052 | 12 | 144 | 0.0 | 1.6 | 0.00 | 0.00 | 0.00 | 52 | 1013.1 |
| 20260502161550 | 12 | 233 | 0.0 | 8.0 | 0.00 | 0.00 | 0.00 | 53 | 1013.2 |
| 20260502151607 | 12 | 283 | 0.0 | 1.6 | 0.00 | 0.00 | 0.00 | 56 | 1013.4 |
| 20260502123027 | 11 | 120 | 0.0 | 0.0 | 0.00 | 0.00 | 0.00 | 73 | 1012.5 |
| 20260502121529 | 11 | 77 | 0.0 | 0.0 | 0.00 | 0.00 | 0.00 | 76 | 1012.3 |
| 20260502114523 | 10 | 77 | 0.0 | 0.0 | 0.00 | 0.00 | 0.00 | 82 | 1012.2 |
| 20260502113027 | 10 | 77 | 0.0 | 0.0 | 0.00 | 0.00 | 0.00 | 86 | 1012.2 |
| 20260502111523 | 10 | 75 | 0.0 | 0.0 | 0.00 | 0.00 | 0.00 | 90 | 1012.2 |
| 20260502110022 | 9 | 75 | 0.0 | 0.0 | 0.00 | 0.00 | 0.00 | 91 | 1012.3 |
| 20260502104526 | 9 | 75 | 0.0 | 0.0 | 0.00 | 0.00 | 0.00 | 91 | 1012.4 |
| 20260502103019 | 9 | 75 | 0.0 | 0.0 | 0.00 | 0.00 | 0.00 | 91 | 1012.1 |
| 20260502101518 | 9 | 75 | 0.0 | 0.0 | 0.00 | 0.00 | 0.00 | 91 | 1012.0 |
| 20260502091517 | 9 | 75 | 0.0 | 0.0 | 0.00 | 0.00 | 0.00 | 90 | 1011.5 |
| 20260502071504 | 10 | 75 | 0.0 | 0.0 | 0.00 | 0.00 | 0.00 | 86 | 1011.0 |
| 20260502070005 | 10 | 75 | 0.0 | 0.0 | 0.00 | 0.00 | 0.00 | 85 | 1010.9 |
| 20260502064602 | 10 | 75 | 0.0 | 0.0 | 0.00 | 0.00 | 0.00 | 84 | 1010.8 |
| 20260502063118 | 10 | 75 | 0.0 | 0.0 | 0.00 | 0.00 | 0.00 | 84 | 1011.1 |
| 20260502061557 | 11 | 75 | 0.0 | 0.0 | 0.00 | 0.00 | 0.00 | 83 | 1011.1 |
| 20260502060055 | 11 | 75 | 0.0 | 0.0 | 0.00 | 0.00 | 0.00 | 81 | 1011.0 |
| 20260502054601 | 11 | 75 | 0.0 | 0.0 | 0.00 | 0.00 | 0.00 | 81 | 1011.2 |
| 20260502053051 | 11 | 75 | 0.0 | 0.0 | 0.00 | 0.00 | 0.00 | 80 | 1011.2 |
| 20260502051548 | 11 | 79 | 0.0 | 0.0 | 0.00 | 0.00 | 0.00 | 80 | 1011.3 |
| 20260502050043 | 11 | 92 | 0.0 | 0.0 | 0.00 | 0.00 | 0.00 | 79 | 1011.5 |
| 20260502044542 | 11 | 94 | 0.0 | 0.0 | 0.00 | 0.00 | 0.00 | 78 | 1011.7 |
| 20260502043051 | 11 | 328 | 0.0 | 0.0 | 0.00 | 0.00 | 0.00 | 78 | 1011.8 |
| 20260502041604 | 11 | 328 | 0.0 | 3.2 | 0.00 | 0.00 | 0.00 | 77 | 1011.9 |
| 20260502040049 | 12 | 280 | 0.0 | 0.0 | 0.00 | 0.00 | 0.00 | 76 | 1011.9 |
| 20260502034539 | 12 | 85 | 0.0 | 0.0 | 0.00 | 0.00 | 0.00 | 75 | 1011.7 |
| 20260502033035 | 12 | 86 | 0.0 | 1.6 | 0.00 | 0.00 | 0.00 | 74 | 1011.4 |
| 20260502031535 | 12 | 285 | 0.0 | 0.0 | 0.00 | 0.00 | 0.00 | 73 | 1011.5 |
| 20260502030049 | 12 | 285 | 0.0 | 0.0 | 0.00 | 0.00 | 0.00 | 72 | 1011.4 |
| 20260502024536 | 13 | 285 | 0.0 | 0.0 | 0.00 | 0.00 | 0.00 | 70 | 1011.1 |
| 20260502023047 | 13 | 285 | 0.0 | 1.6 | 0.00 | 0.00 | 0.00 | 69 | 1011.4 |
| 20260502021533 | 13 | 288 | 0.0 | 1.6 | 0.00 | 0.00 | 0.00 | 68 | 1011.4 |
| 20260502020032 | 13 | 271 | 0.0 | 1.6 | 0.00 | 0.00 | 0.00 | 66 | 1011.5 |
| 20260502014538 | 13 | 282 | 0.0 | 1.6 | 0.00 | 0.00 | 0.00 | 65 | 1011.4 |
| 20260502013031 | 13 | 355 | 0.0 | 1.6 | 0.00 | 0.00 | 0.00 | 65 | 1011.1 |
| 20260502011534 | 13 | 309 | 0.0 | 0.0 | 0.00 | 0.00 | 0.00 | 63 | 1011.0 |
| 20260502010030 | 13 | 309 | 0.0 | 0.0 | 0.00 | 0.00 | 0.00 | 60 | 1010.7 |
| 20260502004529 | 14 | 309 | 0.0 | 0.0 | 0.00 | 0.00 | 0.00 | 58 | 1010.5 |
| 20260502003029 | 15 | 309 | 0.0 | 0.0 | 0.00 | 0.00 | 0.00 | 55 | 1010.1 |
| 20260502001537 | 15 | 309 | 0.0 | 0.0 | 0.00 | 0.00 | 0.00 | 52 | 1010.0 |
| 20260502000048 | 16 | 309 | 0.0 | 0.0 | 0.00 | 0.00 | 0.00 | 49 | 1010.2 |
| 20260501234527 | 17 | 309 | 0.0 | 0.0 | 0.00 | 0.00 | 0.00 | 46 | 1010.1 |
| 20260501233027 | 17 | 308 | 0.0 | 0.0 | 0.00 | 0.00 | 0.00 | 44 | 1010.0 |
| 20260501231528 | 18 | 309 | 0.0 | 1.6 | 0.00 | 0.00 | 0.00 | 42 | 1009.8 |
| 20260501230054 | 18 | 276 | 0.0 | 6.4 | 0.00 | 0.00 | 0.00 | 40 | 1009.9 |
| 20260501224526 | 20 | 158 | 0.0 | 1.6 | 0.00 | 0.00 | 0.00 | 39 | 1010.0 |
| 20260501223024 | 21 | 182 | 0.0 | 4.8 | 0.00 | 0.00 | 0.00 | 37 | 1010.1 |
| 20260501221523 | 21 | 201 | 0.0 | 4.8 | 0.00 | 0.00 | 0.00 | 34 | 1010.3 |
| 20260501220021 | 21 | 305 | 0.0 | 1.6 | 0.00 | 0.00 | 0.00 | 33 | 1010.3 |
| 20260501214521 | 21 | 146 | 0.0 | 9.7 | 0.00 | 0.00 | 0.00 | 33 | 1010.3 |
| 20260501213025 | 21 | 290 | 0.0 | 9.7 | 0.00 | 0.00 | 0.00 | 34 | 1010.3 |
| 20260501211520 | 21 | 141 | 0.0 | 6.4 | 0.00 | 0.00 | 0.00 | 34 | 1010.3 |
| 20260501210019 | 21 | 301 | 0.0 | 3.2 | 0.00 | 0.00 | 0.00 | 33 | 1010.3 |
| 20260501204517 | 22 | 177 | 0.0 | 6.4 | 0.00 | 0.00 | 0.00 | 33 | 1010.4 |
| 20260501203023 | 21 | 297 | 0.0 | 9.7 | 0.00 | 0.00 | 0.00 | 34 | 1010.6 |
| 20260501201513 | 21 | 149 | 0.0 | 4.8 | 0.00 | 0.00 | 0.00 | 33 | 1010.8 |
| 20260501200011 | 21 | 273 | 0.0 | 4.8 | 0.00 | 0.00 | 0.00 | 35 | 1010.9 |
| 20260501194510 | 21 | 75 | 0.0 | 6.4 | 0.00 | 0.00 | 0.00 | 33 | 1011.3 |
| 20260501193006 | 20 | 143 | 0.0 | 1.6 | 0.00 | 0.00 | 0.00 | 33 | 1011.6 |
| 20260501191504 | 21 | 277 | 0.0 | 8.0 | 0.00 | 0.00 | 0.00 | 35 | 1011.8 |
| 20260501190001 | 20 | 148 | 0.0 | 9.7 | 0.00 | 0.00 | 0.00 | 34 | 1012.1 |
| 20260501184600 | 20 | 136 | 0.0 | 6.4 | 0.00 | 0.00 | 0.00 | 36 | 1012.4 |
| 20260501183101 | 20 | 272 | 0.0 | 8.0 | 0.00 | 0.00 | 0.00 | 35 | 1012.7 |
| 20260501181558 | 20 | 263 | 0.0 | 4.8 | 0.00 | 0.00 | 0.00 | 34 | 1012.9 |
| 20260501180056 | 20 | 290 | 0.0 | 6.4 | 0.00 | 0.00 | 0.00 | 35 | 1013.0 |
| 20260501174555 | 20 | 16 | 0.0 | 4.8 | 0.00 | 0.00 | 0.00 | 36 | 1013.2 |
| 20260501173106 | 20 | 106 | 0.0 | 3.2 | 0.00 | 0.00 | 0.00 | 34 | 1013.3 |